#timestamp,LO_Frequency,Hit,StdDev 
1624708815.7,286047001.8,N
1624708835.6,286047002.3,N
1624708855.4,286047002.4,N
1624708875.2,286047002.2,N
1624708895.1,286047001.6,N
1624708896.0,286047001.6,N
1624708915.8,286047002.3,N
1624708935.6,286047001.4,N
1624708955.5,286047002.2,N
1624708975.3,286047002.4,N
1624708995.2,286047002.6,N
1624709015.9,286047002.2,N
1624709035.7,286047001.6,N
1624709055.6,286047001.4,N
1624709075.4,286047002.1,N
1624709095.2,286046999.7,N
1624709115.1,286047001.9,N
1624709116.0,286047001.9,N
1624709135.8,286047002.4,Y
1624709155.7,286047000.9,P
1624709175.5,286047001.1,N
1624709195.3,286047002.2,P
1624709215.2,286047002.6,Y
1624709235.0,286047001.0,P
1624709235.9,286047001.0,P
1624709255.8,286046999.6,N
1624709275.6,286047001.0,N
1624709295.4,286047000.5,N
1624709315.3,286047001.0,N
1624709335.1,286047000.4,N
1624709355.9,286046998.8,N
1624709375.7,286047001.0,N
1624709395.5,286046998.2,N
1624709415.4,286046999.3,N
1624709435.2,286046999.4,N
1624709455.0,286046999.3,N
1624709455.9,286046999.3,N
1624709475.8,286046999.1,N
1624709495.6,286046999.1,N
1624709515.5,286046999.4,N
1624709535.3,286046999.6,N
1624709555.1,286047011.9,Y
1624709575.9,286046999.1,P
1624709595.7,286046999.1,N
1624709615.5,286046998.5,P
1624709635.4,286046999.0,N
1624709655.2,286046998.6,Y
1624709675.1,286047000.4,P
1624709676.0,286047000.4,N
1624709695.8,286046998.1,P
1624709715.6,286047002.8,N
1624709735.5,286047004.2,N
1624709755.3,286047004.2,N
1624709775.2,286047003.7,N
1624709795.9,286047003.7,N
1624709815.7,286047003.8,N
1624709835.6,286047005.9,N
1624709855.4,286047005.6,N
1624709875.2,286047005.1,N
1624709925.1,286047003.0,E
1624709935.0,286047004.3,N
1624709935.9,286047004.3,P
1624709955.8,286047002.2,P
1624709975.6,286047002.0,N
1624709995.4,286047002.1,N
1624710015.3,286047004.3,Y
1624710035.1,286046998.3,P
1624710055.9,286046998.7,N
1624710075.7,286047000.7,N
1624710095.5,286046998.3,N
1624710115.4,286046998.3,N
1624710135.2,286046996.5,N
1624710155.0,286046997.0,N
1624710156.0,286046997.0,N
1624710175.8,286046997.5,N
1624710195.6,286046997.3,N
1624710215.5,286046997.6,N
1624710235.3,286046995.8,N
1624710255.1,286046995.1,N
1624710275.9,286046995.3,N
1624710295.7,286046995.1,N
1624710315.5,286046995.8,N
1624710335.4,286046996.0,N
1624710355.2,286046995.5,N
1624710375.1,286046994.9,N
1624710376.0,286046994.9,N
1624710395.8,286046993.3,Y
1624710415.6,286046997.2,P
1624710435.5,286046997.0,P
1624710455.3,286046996.5,P
1624710475.2,286046997.1,Y
1624710495.9,286047000.9,P
1624710515.7,286047000.3,N
1624710535.6,286046998.1,N
1624710555.4,286046999.3,N
1624710575.2,286046999.4,N
1624710595.1,286046998.8,N
1624710596.0,286046998.8,N
1624710615.8,286046999.1,N
1624710635.7,286046996.7,Y
1624710655.5,286046998.9,P
1624710675.3,286046996.8,P
1624710695.2,286046997.8,N
1624710715.0,286046995.5,Y
1624710715.9,286046995.5,P
1624710735.8,286046996.5,N
1624710755.6,286046997.1,N
1624710775.4,286046998.9,N
1624710795.3,286046999.2,N
1624710815.1,286046997.1,N
1624710835.8,286046999.5,N
1624710855.7,286046999.2,N
1624710875.5,286046996.6,N
1624710895.3,286046998.6,N
1624710915.2,286046996.5,N
1624710935.0,286046999.2,N
1624710935.9,286046999.2,N
1624710955.8,286046999.5,N
1624710975.6,286046999.3,N
1624710995.9,286046999.5,N
1624711015.7,286046999.4,N
1624711035.5,286046999.4,N
1624711055.4,286046998.9,N
1624711075.2,286046999.4,N
1624711095.1,286046999.1,N
1624711096.0,286046999.1,N
1624711115.8,286046996.9,N
1624711135.6,286046998.3,N
1624711155.5,286046998.6,N
1624711175.3,286047001.1,N
1624711195.1,286047000.1,N
1624711215.9,286046999.9,N
1624711235.7,286047000.0,N
1624711255.5,286047000.1,N
1624711275.4,286046999.8,N
1624711295.2,286047002.4,N
1624711315.1,286047002.4,N
1624711316.0,286047002.4,N
1624711335.8,286047000.5,N
1624711355.6,286047000.7,N
1624711375.5,286047002.7,N
1624711395.3,286046999.8,N
1624711415.1,286047002.7,N
1624711435.9,286047002.7,N
1624711455.7,286047000.1,N
1624711475.6,286047002.4,N
1624711495.4,286047001.6,N
1624711515.2,286047002.8,N
1624711535.1,286047000.9,N
1624711536.0,286047000.9,N
1624711555.8,286047000.7,N
1624711575.7,286047000.1,N
1624711595.5,286047000.2,N
1624711615.3,286046999.7,N
1624711635.2,286047002.0,N
1624711655.0,286047000.3,N
1624711655.9,286047000.3,N
1624711675.8,286047000.0,N
1624711695.6,286047002.1,N
1624711715.4,286047001.9,N
1624711735.3,286047002.8,N
1624711755.1,286047002.8,N
1624711775.8,286047002.6,N
1624711795.7,286047002.4,N
1624711815.5,286047002.0,N
1624711835.3,286047002.2,N
1624711855.2,286047002.4,N
1624711875.0,286047000.2,N
1624711875.9,286047000.2,N
1624711895.8,286047000.4,N
1624711915.6,286047000.3,N
1624711935.4,286047000.2,N
1624711955.3,286046999.8,N
1624711975.1,286047001.9,N
1624711995.8,286047002.2,N
1624712015.7,286047002.4,N
1624712035.5,286047001.5,N
1624712055.4,286047001.9,N
1624712075.2,286047001.3,N
1624712095.0,286047002.0,N
1624712095.9,286047002.0,N
1624712115.8,286047001.9,N
1624712135.6,286047002.1,N
1624712155.4,286047001.4,N
1624712175.3,286047001.8,N
1624712195.1,286047001.5,N
1624712215.9,286047001.9,N
1624712235.7,286047004.4,Y
1624712255.5,286046999.9,P
1624712275.4,286047002.1,N
1624712295.2,286047002.4,N
1624712315.0,286047000.3,N
1624712316.0,286047000.3,N
1624712335.8,286047000.3,N
1624712355.6,286047000.5,N
1624712375.5,286047002.7,N
1624712395.3,286047002.8,N
